Weather History for Moose Lake, MN

Change the Weather History Date:

Tuesday, April 2, 2013

  Actual Average Record
Temperature  
Mean Temperature 26 °F -  
Max Temperature 35 °F 45 °F 65 °F (1981)
Min Temperature 17 °F 22 °F -8 °F (1975)
Degree Days  
Heating Degree Days 39    
Moisture  
Dew Point 2 °F    
Average Humidity 38    
Maximum Humidity 63    
Minimum Humidity 17    
Precipitation  
Precipitation 0.00 in - - ()
Sea Level Pressure  
Sea Level Pressure 30.23 in    
Wind  
Wind Speed 7 mph (NW)    
Max Wind Speed 13 mph    
Max Gust Speed 20 mph    
Visibility 10 miles    
Events      
Averages and records for this station are not official NWS values.
T = Trace of Precipitation, MM = Missing Value Source: NWS Daily Summary

Daily Weather History Graph

Daily Weather History Graph

Search for Another Location

Airport:

Trip Planner

Search our weather history database for the weather conditions in past years. The results will help you decide how hot, cold, wet, or windy it might be!

Date:

Astronomy

Apr. 02, 2013 Rise Set
Actual Time 6:48 AM CDT 7:41 PM CDT
Civil Twilight 6:17 AM CDT 8:12 PM CDT
Nautical Twilight 5:41 AM CDT 8:49 PM CDT
Astronomical Twilight 5:03 AM CDT 9:27 PM CDT
Moon 2:01 AM CDT (4/2) 11:25 AM CDT (4/2)
Length of Visible Light 13h 54m
Length of Day
12h 53m
Waning Gibbous, 55% of the Moon is Illuminated
Apr 2
Waning Gibbous
Apr 2
Last Quarter
Apr 10
New
Apr 18
First Quarter
Apr 25
Full

Hourly Weather History & Observations

Time (CDT) Temp. Windchill Dew Point Humidity Pressure Visibility Wind Dir Wind Speed Gust Speed Precip Events Conditions
12:13 AM 23.0 °F 14.7 °F 1.4 °F 39% 30.17 in 10.0 mi WNW 6.9 mph - N/A   Clear
12:33 AM 23.0 °F 14.7 °F 1.4 °F 39% 30.17 in 10.0 mi WNW 6.9 mph - N/A   Clear
12:53 AM 23.0 °F 15.8 °F 1.4 °F 39% 30.17 in 10.0 mi WNW 5.8 mph - N/A   Clear
1:13 AM 23.0 °F 15.8 °F 3.2 °F 43% 30.18 in 10.0 mi WNW 5.8 mph - N/A   Clear
1:33 AM 21.2 °F 14.9 °F 3.2 °F 46% 30.18 in 10.0 mi WNW 4.6 mph - N/A   Clear
1:53 AM 21.2 °F 13.6 °F 3.2 °F 46% 30.18 in 10.0 mi WNW 5.8 mph - N/A   Clear
2:13 AM 21.2 °F 12.6 °F 3.2 °F 46% 30.18 in 10.0 mi WNW 6.9 mph - N/A   Clear
2:33 AM 21.2 °F 13.6 °F 5.0 °F 50% 30.18 in 10.0 mi WNW 5.8 mph - N/A   Clear
2:53 AM 19.4 °F 10.4 °F 5.0 °F 54% 30.18 in 10.0 mi WNW 6.9 mph - N/A   Clear
3:13 AM 19.4 °F 11.5 °F 5.0 °F 54% 30.18 in 10.0 mi WNW 5.8 mph - N/A   Clear
3:33 AM 19.4 °F 10.4 °F 5.0 °F 54% 30.18 in 10.0 mi WNW 6.9 mph - N/A   Clear
3:53 AM 19.4 °F 9.5 °F 5.0 °F 54% 30.18 in 10.0 mi WNW 8.1 mph - N/A   Clear
4:13 AM 19.4 °F 9.5 °F 5.0 °F 54% 30.18 in 10.0 mi WNW 8.1 mph - N/A   Clear
4:33 AM 19.4 °F 10.4 °F 5.0 °F 54% 30.18 in 10.0 mi WNW 6.9 mph - N/A   Clear
4:53 AM 19.4 °F 10.4 °F 5.0 °F 54% 30.18 in 10.0 mi WNW 6.9 mph - N/A   Clear
5:13 AM 19.4 °F 10.4 °F 6.8 °F 58% 30.19 in 10.0 mi WNW 6.9 mph - N/A   Clear
5:33 AM 17.6 °F 8.2 °F 6.8 °F 63% 30.19 in 10.0 mi WNW 6.9 mph - N/A   Clear
5:53 AM 17.6 °F 9.3 °F 6.8 °F 63% 30.20 in 10.0 mi WNW 5.8 mph - N/A   Clear
6:13 AM 17.6 °F 10.7 °F 6.8 °F 63% 30.20 in 10.0 mi WNW 4.6 mph - N/A   Clear
6:33 AM 17.6 °F 9.3 °F 6.8 °F 63% 30.20 in 10.0 mi WNW 5.8 mph - N/A   Clear
6:53 AM 17.6 °F 10.7 °F 6.8 °F 63% 30.21 in 10.0 mi West 4.6 mph - N/A   Clear
7:13 AM 17.6 °F 10.7 °F 6.8 °F 63% 30.21 in 10.0 mi West 4.6 mph - N/A   Clear
7:33 AM 17.6 °F 9.3 °F 6.8 °F 63% 30.22 in 10.0 mi WNW 5.8 mph - N/A   Clear
7:53 AM 19.4 °F 11.5 °F 6.8 °F 58% 30.22 in 10.0 mi NW 5.8 mph - N/A   Scattered Clouds
8:13 AM 19.4 °F 9.5 °F 8.6 °F 63% 30.23 in 10.0 mi NW 8.1 mph - N/A   Clear
8:33 AM 21.2 °F 9.5 °F 8.6 °F 58% 30.23 in 10.0 mi NW 11.5 mph - N/A   Mostly Cloudy
8:53 AM 21.2 °F 10.9 °F 8.6 °F 58% 30.23 in 10.0 mi NW 9.2 mph - N/A   Scattered Clouds
9:33 AM 23.0 °F 17.0 °F 8.6 °F 54% 30.24 in 10.0 mi NW 4.6 mph - N/A   Overcast
9:53 AM 26.6 °F 19.1 °F 8.6 °F 47% 30.25 in 10.0 mi NNW 6.9 mph - N/A   Mostly Cloudy
10:13 AM 26.6 °F 20.0 °F 6.8 °F 43% 30.25 in 10.0 mi NW 5.8 mph - N/A   Scattered Clouds
10:33 AM 28.4 °F 23.3 °F 5.0 °F 37% 30.25 in 10.0 mi NNW 4.6 mph - N/A   Mostly Cloudy
10:53 AM 28.4 °F 18.5 °F 3.2 °F 34% 30.25 in 10.0 mi NNW 11.5 mph 18.4 mph N/A   Clear
11:13 AM 30.2 °F 21.9 °F 5.0 °F 34% 30.24 in 10.0 mi NW 9.2 mph - N/A   Clear
11:33 AM 30.2 °F 20.8 °F 3.2 °F 32% 30.25 in 10.0 mi NNW 11.5 mph 17.3 mph N/A   Clear
11:53 AM 30.2 °F 20.8 °F 3.2 °F 32% 30.25 in 10.0 mi North 11.5 mph 16.1 mph N/A   Clear
12:13 PM 32.0 °F 23.0 °F 3.2 °F 30% 30.25 in 10.0 mi NNW 11.5 mph - N/A   Clear
12:33 PM 32.0 °F 24.2 °F 1.4 °F 27% 30.25 in 10.0 mi North 9.2 mph - N/A   Clear
12:53 PM 32.0 °F 23.6 °F 1.4 °F 27% 30.25 in 10.0 mi NW 10.4 mph 16.1 mph N/A   Clear
1:13 PM 32.0 °F 25.6 °F 1.4 °F 27% 30.24 in 10.0 mi NW 6.9 mph 19.6 mph N/A   Clear
1:33 PM 32.0 °F 23.0 °F -0.4 °F 25% 30.24 in 10.0 mi NW 11.5 mph 18.4 mph N/A   Clear
1:53 PM 33.8 °F 25.8 °F 1.4 °F 25% 30.24 in 10.0 mi NNW 10.4 mph 17.3 mph N/A   Clear
2:13 PM 33.8 °F 27.0 °F -0.4 °F 23% 30.24 in 10.0 mi NW 8.1 mph 18.4 mph N/A   Clear
2:33 PM 33.8 °F 26.4 °F -0.4 °F 23% 30.24 in 10.0 mi NW 9.2 mph 19.6 mph N/A   Clear
2:53 PM 33.8 °F 24.8 °F 1.4 °F 25% 30.24 in 10.0 mi NNW 12.7 mph 18.4 mph N/A   Clear
3:13 PM 33.8 °F 27.0 °F 1.4 °F 25% 30.24 in 10.0 mi North 8.1 mph 18.4 mph N/A   Clear
3:33 PM 33.8 °F 26.4 °F 1.4 °F 25% 30.24 in 10.0 mi WNW 9.2 mph 17.3 mph N/A   Clear
3:53 PM 35.6 °F 28.0 °F 1.4 °F 24% 30.24 in 10.0 mi WNW 10.4 mph - N/A   Clear
4:13 PM 33.8 °F 24.8 °F -2.2 °F 22% 30.24 in 10.0 mi West 12.7 mph 17.3 mph N/A   Clear
4:33 PM 35.6 °F 28.0 °F -0.4 °F 22% 30.24 in 10.0 mi NNW 10.4 mph 16.1 mph N/A   Clear
4:53 PM 35.6 °F 27.5 °F -4.0 °F 18% 30.24 in 10.0 mi North 11.5 mph 18.4 mph N/A   Clear
5:13 PM 35.6 °F 28.0 °F -2.2 °F 20% 30.24 in 10.0 mi NNW 10.4 mph - N/A   Clear
5:33 PM 35.6 °F 29.9 °F -0.4 °F 22% 30.25 in 10.0 mi NNW 6.9 mph - N/A   Clear
5:53 PM 35.6 °F 28.6 °F -2.2 °F 20% 30.25 in 10.0 mi NNW 9.2 mph - N/A   Clear
6:13 PM 35.6 °F 29.2 °F -5.8 °F 17% 30.25 in 10.0 mi NNW 8.1 mph - N/A   Clear
6:33 PM 33.8 °F 27.7 °F -4.0 °F 20% 30.26 in 10.0 mi North 6.9 mph - N/A   Clear
6:53 PM 33.8 °F 29.6 °F -0.4 °F 23% 30.26 in 10.0 mi North 4.6 mph - N/A   Clear
7:13 PM 33.8 °F 27.0 °F -4.0 °F 20% 30.26 in 10.0 mi NNW 8.1 mph - N/A   Clear
7:33 PM 32.0 °F 27.5 °F -5.8 °F 20% 30.26 in 10.0 mi NNW 4.6 mph - N/A   Clear
7:53 PM 32.0 °F 27.5 °F -4.0 °F 21% 30.26 in 10.0 mi NNW 4.6 mph - N/A   Clear
8:13 PM 32.0 °F 28.7 °F -4.0 °F 21% 30.26 in 10.0 mi NW 3.5 mph - N/A   Clear
8:33 PM 30.2 °F 26.7 °F -2.2 °F 25% 30.27 in 10.0 mi WNW 3.5 mph - N/A   Clear
8:53 PM 30.2 °F 26.7 °F -4.0 °F 23% 30.28 in 10.0 mi WNW 3.5 mph - N/A   Clear
9:13 PM 28.4 °F 24.6 °F 1.4 °F 31% 30.28 in 10.0 mi WNW 3.5 mph - N/A   Clear
9:33 PM 28.4 °F 23.3 °F 1.4 °F 31% 30.28 in 10.0 mi NW 4.6 mph - N/A   Clear
9:53 PM 26.6 °F 22.6 °F 1.4 °F 34% 30.29 in 10.0 mi West 3.5 mph - N/A   Clear
10:13 PM 26.6 °F 21.2 °F -0.4 °F 31% 30.30 in 10.0 mi WNW 4.6 mph - N/A   Clear
10:33 PM 24.8 °F 19.1 °F 1.4 °F 36% 30.30 in 10.0 mi NW 4.6 mph - N/A   Clear
10:53 PM 26.6 °F 21.2 °F -0.4 °F 31% 30.30 in 10.0 mi NW 4.6 mph - N/A   Clear
11:13 PM 24.8 °F 19.1 °F -0.4 °F 34% 30.30 in 10.0 mi NW 4.6 mph - N/A   Scattered Clouds
11:33 PM 24.8 °F 19.1 °F -0.4 °F 34% 30.30 in 10.0 mi NW 4.6 mph - N/A   Scattered Clouds
11:53 PM 23.0 °F 18.4 °F -0.4 °F 36% 30.31 in 10.0 mi NNW 3.5 mph - N/A   Scattered Clouds